This is the latest recevied weather packets stored in our database for station/object KI7JYE. If no packets are shown the sender has not sent any weather packets the latest 10 day(s).
| Time | Temp. | Humidity | Pressure | Rain* | Wind** | Luminosity | Snow |
|---|---|---|---|---|---|---|---|
| 1777200483 | 5.56° C | 78% | 1006.8 hPa | 0 mm | - | 0 W/m² | - |
| 1777200179 | 5.56° C | 78% | 1006.7 hPa | 0 mm | - | 0 W/m² | - |
| 1777199876 | 5.56° C | 77% | 1006.8 hPa | 0 mm | - | 0 W/m² | - |
| 1777199570 | 5.56° C | 76% | 1006.7 hPa | 0 mm | - | 0 W/m² | - |
| 1777199270 | 5.56° C | 75% | 1006.9 hPa | 0 mm | - | 0 W/m² | - |
| 1777198964 | 6.11° C | 75% | 1006.8 hPa | 0 mm | - | 0 W/m² | - |
| 1777198661 | 6.11° C | 74% | 1006.7 hPa | 0 mm | - | 0 W/m² | - |
| 1777198359 | 6.67° C | 74% | 1007.1 hPa | 0 mm | - | 0 W/m² | - |
| 1777198056 | 6.67° C | 74% | 1007 hPa | 0 mm | - | 0 W/m² | - |
| 1777197751 | 6.67° C | 72% | 1006.8 hPa | 0 mm | - | 0 W/m² | - |
| 1777197446 | 6.67° C | 72% | 1006.9 hPa | 0 mm | - | 0 W/m² | - |
| 1777197144 | 6.67° C | 72% | 1006.8 hPa | 0 mm | - | 0 W/m² | - |
| 1777196839 | 6.67° C | 71% | 1006.9 hPa | 0 mm | - | 0 W/m² | - |
| 1777196535 | 6.67° C | 72% | 1006.7 hPa | 0 mm | - | 0 W/m² | - |
| 1777196233 | 6.67° C | 71% | 1007 hPa | 0 mm | - | 0 W/m² | - |
| 1777195929 | 7.22° C | 70% | 1007 hPa | 0 mm | - | 0 W/m² | - |
| 1777195623 | 7.78° C | 68% | 1007 hPa | 0 mm | - | 0 W/m² | - |
| 1777195319 | 7.78° C | 70% | 1007 hPa | 0 mm | - | 0 W/m² | - |
| 1777195016 | 7.78° C | 70% | 1006.9 hPa | 0 mm | - | 0 W/m² | - |
| 1777194716 | 7.78° C | 69% | 1006.9 hPa | 0 mm | - | 0 W/m² | - |
| 1777194413 | 7.78° C | 68% | 1007.2 hPa | 0 mm | - | 0 W/m² | - |
| 1777194110 | 7.78° C | 69% | 1007.1 hPa | 0 mm | - | 0 W/m² | - |
| 1777193805 | 7.78° C | 66% | 1007.1 hPa | 0 mm | - | 0 W/m² | - |
| 1777193499 | 8.33° C | 65% | 1007 hPa | 0 mm | - | 0 W/m² | - |
| 1777193194 | 8.89° C | 63% | 1007.1 hPa | 0 mm | - | 0 W/m² | - |
* Rain latest hour (hover to see other rain measurements)
** Current wind speed in m/s (hover to see current wind gust speed)